Weather History for Marshfield, WI

Change the Weather History Date:

Saturday, July 28, 2012

  Actual Average Record
Temperature  
Mean Temperature 70 °F -  
Max Temperature 84 °F 80 °F 97 °F (1916)
Min Temperature 55 °F 56 °F 42 °F (1934)
Cooling Degree Days 4    
Growing Degree Days 20 (Base 50)    
Moisture  
Dew Point 57 °F    
Average Humidity 63    
Maximum Humidity 93    
Minimum Humidity 37    
Precipitation  
Precipitation 0.00 in - - ()
Sea Level Pressure  
Sea Level Pressure 30.10 in    
Wind  
Wind Speed 3 mph (North)    
Max Wind Speed 9 mph    
Max Gust Speed -    
Visibility 10 miles    
Events Rain    
Averages and records for this station are not official NWS values.
T = Trace of Precipitation, MM = Missing Value Source: NWS Daily Summary

Daily Weather History Graph

Daily Weather History Graph

Search for Another Location

Airport:

Trip Planner

Search our weather history database for the weather conditions in past years. The results will help you decide how hot, cold, wet, or windy it might be!

Date:

Astronomy

Jul. 28, 2012 Rise Set
Actual Time 5:43 AM CDT 8:30 PM CDT
Civil Twilight 5:09 AM CDT 9:04 PM CDT
Nautical Twilight 4:26 AM CDT 9:47 PM CDT
Astronomical Twilight 3:36 AM CDT 10:36 PM CDT
Moon 4:37 PM CDT (7/28) 1:01 AM CDT (7/28)
Length of Visible Light 15h 54m
Length of Day
14h 47m
Waxing Gibbous, 76% of the Moon is Illuminated
Jul 28
Waxing Gibbous
Aug 1
Full
Aug 9
Last Quarter
Aug 17
New
Aug 24
First Quarter

Hourly Weather History & Observations

Time (CDT) Temp. Heat Index Dew Point Humidity Pressure Visibility Wind Dir Wind Speed Gust Speed Precip Events Conditions
12:54 AM 64.9 °F - 57.9 °F 78% 30.09 in 10.0 mi NNE 4.6 mph - N/A   Scattered Clouds
1:54 AM 63.0 °F - 57.0 °F 81% 30.10 in 10.0 mi NNE 3.5 mph - N/A   Clear
2:54 AM 62.1 °F - 55.9 °F 80% 30.10 in 10.0 mi Calm Calm - N/A   Clear
3:54 AM 60.1 °F - 55.9 °F 86% 30.10 in 10.0 mi NE 3.5 mph - N/A   Clear
4:54 AM 57.9 °F - 55.0 °F 90% 30.11 in 10.0 mi NE 3.5 mph - N/A   Clear
5:54 AM 55.9 °F - 54.0 °F 93% 30.13 in 10.0 mi Calm Calm - N/A   Clear
6:54 AM 61.0 °F - 57.0 °F 87% 30.14 in 10.0 mi ENE 3.5 mph - N/A   Clear
7:54 AM 64.0 °F - 57.9 °F 80% 30.16 in 10.0 mi East 3.5 mph - N/A   Clear
8:54 AM 69.1 °F - 60.1 °F 73% 30.14 in 10.0 mi East 4.6 mph - N/A   Clear
9:54 AM 73.0 °F - 57.9 °F 59% 30.15 in 10.0 mi NNW 3.5 mph - N/A   Clear
10:54 AM 75.0 °F - 57.9 °F 55% 30.14 in 10.0 mi Calm Calm - N/A   Clear
11:54 AM 79.0 °F - 57.0 °F 47% 30.14 in 10.0 mi West 6.9 mph - N/A   Clear
12:54 PM 81.0 °F 80.8 °F 55.9 °F 42% 30.13 in 10.0 mi Variable 3.5 mph - 0.00 in Rain Light Rain
1:54 PM 81.0 °F 80.7 °F 55.0 °F 41% 30.12 in 10.0 mi WNW 9.2 mph - 0.00 in Rain Light Rain
2:54 PM 84.0 °F 82.9 °F 55.0 °F 37% 30.11 in 10.0 mi North 6.9 mph - 0.00 in   Partly Cloudy
3:54 PM 82.9 °F 82.0 °F 55.0 °F 38% 30.08 in 10.0 mi Variable 4.6 mph - N/A   Partly Cloudy
4:54 PM 82.9 °F 82.1 °F 55.9 °F 39% 30.07 in 10.0 mi WNW 3.5 mph - N/A   Clear
5:54 PM 84.9 °F 83.9 °F 57.0 °F 38% 30.06 in 10.0 mi NW 5.8 mph - N/A   Mostly Cloudy
6:54 PM 82.9 °F 82.4 °F 57.0 °F 41% 30.05 in 10.0 mi NW 3.5 mph - N/A   Scattered Clouds
7:54 PM 80.1 °F 80.4 °F 57.0 °F 45% 30.04 in 10.0 mi Calm Calm - N/A   Partly Cloudy
8:54 PM 73.0 °F - 59.0 °F 61% 30.05 in 10.0 mi Calm Calm - N/A   Mostly Cloudy
10:54 PM 69.1 °F - 60.1 °F 73% 30.05 in 10.0 mi WNW 3.5 mph - N/A   Clear
11:54 PM 68.0 °F - 60.1 °F 76% 30.06 in 10.0 mi Calm Calm - N/A   Clear